TimeEDT,TemperatureF,Dew PointF,Humidity,Sea Level PressureIn,VisibilityMPH,Wind Direction,Wind SpeedMPH,Gust SpeedMPH,PrecipitationIn,Events,Conditions,WindDirDegrees,DateUTC
12:15 AM,66.2,64.4,94,30.15,3.0,East,4.6,-,N/A,,Overcast,90,2012-10-26 04:15:00
12:35 AM,66.2,64.4,94,30.15,3.0,East,3.5,-,N/A,,Overcast,90,2012-10-26 04:35:00
1:15 AM,66.2,64.4,94,30.15,4.0,Calm,Calm,-,N/A,,Overcast,0,2012-10-26 05:15:00
1:35 AM,66.2,64.4,94,30.14,5.0,Calm,Calm,-,N/A,,Overcast,0,2012-10-26 05:35:00
2:15 AM,66.2,64.4,94,30.13,4.0,East,3.5,-,N/A,,Overcast,90,2012-10-26 06:15:00
2:35 AM,66.2,64.4,94,30.13,4.0,Calm,Calm,-,N/A,,Overcast,0,2012-10-26 06:35:00
2:55 AM,66.2,64.4,94,30.13,3.0,Calm,Calm,-,N/A,,Overcast,0,2012-10-26 06:55:00
3:35 AM,66.2,64.4,94,30.13,4.0,Calm,Calm,-,N/A,,Overcast,0,2012-10-26 07:35:00
3:55 AM,66.2,64.4,94,30.12,5.0,Calm,Calm,-,N/A,,Overcast,0,2012-10-26 07:55:00
4:15 AM,66.2,64.4,94,30.12,5.0,Calm,Calm,-,N/A,,Overcast,0,2012-10-26 08:15:00
4:35 AM,66.2,64.4,94,30.11,5.0,Calm,Calm,-,N/A,,Overcast,0,2012-10-26 08:35:00
4:55 AM,66.2,64.4,94,30.12,7.0,Calm,Calm,-,N/A,,Overcast,0,2012-10-26 08:55:00
5:15 AM,66.2,64.4,94,30.12,7.0,Calm,Calm,-,N/A,,Overcast,0,2012-10-26 09:15:00
5:35 AM,66.2,64.4,94,30.12,7.0,Calm,Calm,-,N/A,,Overcast,0,2012-10-26 09:35:00
5:55 AM,66.2,64.4,94,30.12,7.0,Calm,Calm,-,N/A,,Overcast,0,2012-10-26 09:55:00
6:15 AM,66.2,64.4,94,30.12,7.0,Calm,Calm,-,N/A,,Overcast,0,2012-10-26 10:15:00
6:35 AM,66.2,64.4,94,30.12,7.0,Calm,Calm,-,N/A,,Overcast,0,2012-10-26 10:35:00
6:55 AM,66.2,64.4,94,30.12,7.0,NNE,3.5,-,N/A,,Overcast,30,2012-10-26 10:55:00
7:15 AM,66.2,64.4,94,30.12,7.0,ENE,3.5,-,N/A,,Overcast,60,2012-10-26 11:15:00
7:35 AM,66.2,64.4,94,30.12,7.0,Calm,Calm,-,N/A,,Overcast,0,2012-10-26 11:35:00
7:55 AM,66.2,64.4,94,30.12,7.0,Calm,Calm,-,N/A,,Overcast,0,2012-10-26 11:55:00
8:15 AM,66.2,64.4,94,30.13,10.0,Calm,Calm,-,N/A,,Overcast,0,2012-10-26 12:15:00
8:55 AM,66.2,64.4,94,30.15,10.0,Calm,Calm,-,N/A,,Overcast,0,2012-10-26 12:55:00
9:55 AM,68.0,64.4,88,30.16,10.0,Calm,Calm,-,N/A,,Overcast,0,2012-10-26 13:55:00
10:15 AM,69.8,64.4,83,30.16,10.0,NE,4.6,-,N/A,,Overcast,40,2012-10-26 14:15:00
10:35 AM,69.8,64.4,83,30.15,10.0,NE,4.6,-,N/A,,Overcast,40,2012-10-26 14:35:00
10:55 AM,69.8,64.4,83,30.15,10.0,NE,3.5,-,N/A,,Overcast,40,2012-10-26 14:55:00
11:15 AM,69.8,64.4,83,30.15,10.0,NE,4.6,-,N/A,,Overcast,40,2012-10-26 15:15:00
11:35 AM,69.8,64.4,83,30.15,10.0,NE,3.5,-,N/A,,Overcast,50,2012-10-26 15:35:00
11:55 AM,69.8,64.4,83,30.14,10.0,ENE,3.5,-,N/A,,Overcast,70,2012-10-26 15:55:00
12:15 PM,71.6,64.4,78,30.13,10.0,ENE,3.5,-,N/A,,Mostly Cloudy,60,2012-10-26 16:15:00
12:35 PM,73.4,64.4,73,30.12,10.0,East,3.5,-,N/A,,Scattered Clouds,90,2012-10-26 16:35:00
12:55 PM,71.6,62.6,73,30.12,10.0,ENE,3.5,-,N/A,,Scattered Clouds,60,2012-10-26 16:55:00
1:15 PM,71.6,62.6,73,30.11,7.0,Calm,Calm,-,N/A,,Scattered Clouds,0,2012-10-26 17:15:00
1:35 PM,71.6,62.6,73,30.10,10.0,NE,4.6,-,N/A,,Mostly Cloudy,40,2012-10-26 17:35:00
1:55 PM,73.4,64.4,73,30.08,10.0,East,5.8,-,N/A,,Scattered Clouds,80,2012-10-26 17:55:00
2:15 PM,71.6,64.4,78,30.08,10.0,Calm,Calm,-,N/A,,Scattered Clouds,0,2012-10-26 18:15:00
2:35 PM,71.6,64.4,78,30.07,10.0,ESE,3.5,-,N/A,,Scattered Clouds,110,2012-10-26 18:35:00
2:55 PM,71.6,64.4,78,30.06,10.0,Calm,Calm,-,N/A,,Scattered Clouds,0,2012-10-26 18:55:00
3:15 PM,71.6,62.6,73,30.06,10.0,Calm,Calm,-,N/A,,Mostly Cloudy,0,2012-10-26 19:15:00
3:35 PM,69.8,64.4,83,30.06,1.2,Calm,Calm,-,N/A,,Overcast,0,2012-10-26 19:35:00
3:55 PM,69.8,64.4,83,30.05,10.0,Calm,Calm,-,N/A,,Mostly Cloudy,0,2012-10-26 19:55:00
4:15 PM,69.8,64.4,83,30.04,10.0,Calm,Calm,-,N/A,,Mostly Cloudy,0,2012-10-26 20:15:00
4:35 PM,69.8,64.4,83,30.03,10.0,Calm,Calm,-,N/A,,Mostly Cloudy,0,2012-10-26 20:35:00
4:55 PM,69.8,64.4,83,30.03,10.0,Calm,Calm,-,N/A,,Overcast,0,2012-10-26 20:55:00
5:15 PM,69.8,64.4,83,30.03,10.0,Calm,Calm,-,N/A,,Overcast,0,2012-10-26 21:15:00
5:35 PM,68.0,64.4,88,30.04,10.0,Calm,Calm,-,N/A,,Overcast,0,2012-10-26 21:35:00
5:55 PM,68.0,62.6,83,30.04,10.0,Calm,Calm,-,N/A,,Overcast,0,2012-10-26 21:55:00
6:15 PM,66.2,62.6,88,30.04,10.0,ENE,3.5,-,N/A,,Overcast,60,2012-10-26 22:15:00
6:35 PM,66.2,62.6,88,30.04,10.0,ENE,3.5,-,N/A,,Mostly Cloudy,60,2012-10-26 22:35:00
6:55 PM,66.2,64.4,94,30.04,10.0,ENE,3.5,-,N/A,,Mostly Cloudy,60,2012-10-26 22:55:00
7:15 PM,66.2,64.4,94,30.04,10.0,NE,3.5,-,N/A,,Mostly Cloudy,50,2012-10-26 23:15:00
7:35 PM,66.2,64.4,94,30.04,10.0,NE,4.6,-,N/A,,Mostly Cloudy,40,2012-10-26 23:35:00
7:55 PM,66.2,64.4,94,30.04,10.0,ENE,3.5,-,N/A,,Mostly Cloudy,60,2012-10-26 23:55:00
8:15 PM,66.2,64.4,94,30.04,10.0,NE,4.6,-,N/A,,Overcast,50,2012-10-27 00:15:00
8:35 PM,66.2,62.6,88,30.03,10.0,NE,5.8,-,N/A,,Overcast,50,2012-10-27 00:35:00
8:55 PM,66.2,62.6,88,30.03,10.0,NE,3.5,-,N/A,,Overcast,50,2012-10-27 00:55:00
9:15 PM,66.2,62.6,88,30.03,10.0,ENE,3.5,-,N/A,,Overcast,60,2012-10-27 01:15:00
9:35 PM,66.2,62.6,88,30.03,10.0,ENE,3.5,-,N/A,,Overcast,60,2012-10-27 01:35:00
9:55 PM,66.2,62.6,88,30.03,10.0,NE,4.6,-,N/A,,Scattered Clouds,50,2012-10-27 01:55:00
10:15 PM,64.4,62.6,94,30.02,10.0,NE,4.6,-,N/A,,Clear,50,2012-10-27 02:15:00
10:35 PM,64.4,62.6,94,30.02,7.0,NE,3.5,-,N/A,,Mostly Cloudy,40,2012-10-27 02:35:00
10:55 PM,64.4,62.6,94,30.01,10.0,NE,3.5,-,N/A,,Scattered Clouds,40,2012-10-27 02:55:00
11:15 PM,64.4,62.6,94,30.00,10.0,NE,3.5,-,N/A,,Scattered Clouds,50,2012-10-27 03:15:00
11:35 PM,64.4,62.6,94,30.00,10.0,NE,3.5,-,N/A,,Scattered Clouds,50,2012-10-27 03:35:00
11:55 PM,62.6,60.8,94,30.00,10.0,ENE,3.5,-,N/A,,Scattered Clouds,60,2012-10-27 03:55:00